Location: Red Deer
(52.2681°N, 113.8112°W)
Time: 23:37:13
(UTC-06:00)

QB50P2 - Pass Details

Date: 28 May 2022
Orbit: 589 x 607 km, 97.9° (Epoch: 27 June)

Event Time Altitude Azimuth Distance (km) Brightness Sun altitude
Rises 02:32:12 0° 20° (NNE) 2,837 ? -15.1°
Reaches altitude 10° 02:34:30 10° 28° (NNE) 1,929 ? -15.0°
Maximum altitude 02:38:25 38° 98° (E) 908 ? -14.9°
Enters shadow 02:41:02 18° 158° (SSE) 1,456 ? -14.7°
